Regional Weather Roundup
Issued by NWS Midland/Odessa, TX

Home | Current Version | Previous Version | Text Only | Print | Product List | Glossary On
Versions: 1 2 3 4 5 6 7 8 9 10 11 12 13 14 15 16 17 18 19 20 21 22 23 24 25 26 27 28 29 30 31 32 33 34 35 36 37 38 39 40 41 42 43 44 45 46 47 48 49 50
000
ASUS44 KMAF 151810
RWRMAF
MIDLAND AREA WEATHER ROUNDUP
NATIONAL WEATHER SERVICE MIDLAND TX
1200 PM CST FRI DEC 15 2017

...IN SOUTHWEST TEXAS AND SOUTHEAST NEW MEXICO...

CITY           SKY/WX    TMP DP  RH WIND       PRES   REMARKS
ALPINE         SUNNY     43  25  48 NE3       30.37F
ANDREWS        FAIR      47  25  42 SW6       30.34F
ARTESIA        SUNNY     46  25  42 S10       30.32F
BIG SPRING     SUNNY     46  24  41 S6        30.37F
CARLSBAD       SUNNY     47  30  51 SE10      30.32F
DRYDEN           N/A     53  29  39 NE8       30.33F
FORT STOCKTON  SUNNY     45  29  53 CALM      30.35F
GUAD PASS      SUNNY     42  26  53 SW12      30.33F WCI  36
HOBBS          SUNNY     48  25  40 SW9       30.32F
LAMESA         FAIR      46  25  42 SW9       30.34F
MARFA          NOT AVBL
MIDLAND AIRPK  SUNNY     48  24  38 S7        30.35F
MIDLAND INTL   SUNNY     47  24  40 S7        30.34F
ODESSA         SUNNY     46  25  43 VRB5      30.35F
PECOS          SUNNY     46  29  51 CALM      30.37F
PRESIDIO       FAIR      51  28  40 E10G17    30.35F
SEMINOLE       SUNNY     47  25  41 SW6       30.34F
SNYDER           N/A    N/A N/A N/A SW8       30.34F
WINK           SUNNY     48  26  42 VRB7      30.35F
$$
...OTHER STATIONS IN TEXAS...

CITY           SKY/WX    TMP DP  RH WIND       PRES   REMARKS
ABILENE        SUNNY     45  26  47 CALM      30.35F
AMARILLO       SUNNY     47  27  45 W23       30.21F WCI  39
AUSTIN         CLOUDY    53  30  41 N6        30.33F
BROWNSVILLE    CLOUDY    54  44  69 NW15G25   30.30S
CORPUS CHRISTI LGT RAIN  50  41  71 NW7       30.34R
DALLAS FTW     MOSUNNY   53  28  38 NW7       30.29F
DEL RIO        MOSUNNY   54  32  43 NW7       30.35F
EL PASO        SUNNY     46  27  47 SE8       30.34F
HOUSTON INT    CLOUDY    53  35  50 NE9       30.31F
LUBBOCK        SUNNY     48  24  39 W10       30.27F
SAN ANGELO     SUNNY     50  25  37 E5        30.35F
SAN ANTONIO    CLOUDY    53  30  41 N12       30.32F
WACO           SUNNY     55  27  34 N12       30.33F
WICHITA FALLS  SUNNY     45  29  53 SW14      30.17F WCI  38
$$
...OTHER LOCATIONS IN NEW MEXICO...

CITY           SKY/WX    TMP DP  RH WIND       PRES   REMARKS
ALAMOGORDO     SUNNY     45  18  33 S10       30.36F WCI  39
ALBUQUERQUE    SUNNY     39  18  42 W3        30.33F
CANNON AFB     SUNNY     44  27  52 SW21      30.25F WCI  35
CLOVIS         SUNNY     44  26  49 SW23      30.25F WCI  35
HOLLOMAN AFB   SUNNY     45  18  33 S7        30.37F
ROSWELL        SUNNY     48  25  40 S14       30.30F
RUIDOSO        SUNNY     41  12  30 NW10      30.29F WCI  35
SANTA FE       SUNNY     36  16  44 N15       30.29F WCI  27
TRUTH OR CONSE SUNNY     46  17  31 NE3       30.33F
TUCUMCARI      SUNNY     49  23  36 W17G23    30.20F
$$



USA.gov is the U.S. government's official web portal to all federal, state and local government web resources and services.